sat.trackr.live / text

‹ back to catalog

HULIANWANG DIGUI-118

NORAD 66957 · 2025-287E

PAYLOAD ACTIVE UNKNOWN

§ Identity

Operator
Country
PRC
Launch date
2025-12-08
Launch site
TAISC
Launch vehicle
Mass (kg)
RCS (m²)

External: N2YO · Heavens-Above · Gunter

§ Orbital elements

Epoch: 2026-09-20T21:45:42.014592Z

Period
108.73 min
Inclination
86.4881°
Eccentricity
0.0001520
Mean motion
13.24405344 rev/d
Perigee alt
1,166.8 km
Apogee alt
1,169.1 km
Semi-major
7,546.1 km
B*
-1.6343e-4
RAAN
249.9586°
Arg perigee
85.5628°
Mean anomaly
274.5679°
Rev number
3,801

§ Raw data

HULIANWANG DIGUI-1181 66957U 25287E   26263.90673628 -.00000055  00000+0 -16343-3 0  99982 66957  86.4881 249.9586 0001520  85.5628 274.5679 13.24405344 38017

JSON: /api/v1/satellites/66957 · /tle

For live sub-satellite position, see the globe view (requires WebGL).

§ Visibility from observer

Set your observer location to see the next 7 days of passes ≥ 10°. The values pass through the URL so the page stays shareable.

No JS? Fill the form by hand. The geolocation button needs JavaScript.